User: anonymous   Login
Location: Oshawa
(43.9000°N, 78.8670°W)
Time: 07:45:01
(UTC-04:00)
Language:

CARTOSAT-1 - Orbit

View from above orbital plane
View from above orbital plane
View from above satellite
View from above satellite

Ground track
Ground track

The orbit data is extracted from the following two-line orbital elements,

1 28649U 05017A   15185.10440930  .00000369  00000-0  51450-4 0  9990
2 28649 097.9354 256.4314 0001644 175.6263 184.4978 14.83418212550115
Epoch (UTC): 04 July 2015 02:30:20
Eccentricity: 0.0001644
inclination: 97.9354°
perigee height: 617 km
apogee height: 620 km
right ascension of ascending node: 256.4314°
argument of perigee: 175.6263°
revolutions per day: 14.83418212
mean anomaly at epoch: 184.4978°
orbit number at epoch: 55011

The dashed part of the orbit path shows where the satellite is in the earth's shadow,  

DLR